Location: Unspecified
(0.0000°N, 0.0000°E)
Time: 06:41:51
(UTC+00:00)

Vanguard 2 Rocket - Pass Details

Date: 09 October 2022
Orbit: 555 x 3321 km, 32.9° (Epoch: 06 December)

Event Time Altitude Azimuth Distance (km) Brightness Sun altitude
Rises 14:01:09 0° 212° (SSW) 5,013 11.0 56.0°
Reaches altitude 10° 14:04:46 10° 201° (SSW) 4,410 10.8 55.1°
Maximum altitude 14:15:41 29° 144° (SE) 4,011 10.3 52.4°
Drops below altitude 10° 14:30:45 10° 92° (E) 6,168 10.8 48.7°
Sets 14:36:59 0° 82° (E) 7,300 11.1 47.2°
